Other Public Products
Issued by NWS Grand Forks, ND

Home | Current Version | Previous Version | Text Only | Print | Product List | Glossary Off
Versions: 1 2 3 4 5 6 7 8 9 10 11 12 13 14 15 16 17 18 19 20 21 22 23 24 25 26 27 28 29 30 31 32 33 34 35 36 37 38 39 40 41 42 43 44 45 46 47 48 49 50

000
FPUS83 KFGF 030310
OPUFGF
PRAIRIE TO PINES WEATHER ROUNDUP
NATIONAL WEATHER SERVICE EASTERN NORTH DAKOTA/GRAND FORKS ND
900 PM CST MON MAR 02 2015

 **SATELLITE DATA USED TO AUGMENT SKY COVER AT AUTOMATED STATIONS**
 *****  WEATHER ACROSS EASTERN NORTH DAKOTA  *****

CITY           SKY/WX    TMP DP  RH WIND       PRES   REMARKS
GRAND FORKS    PTCLDY    25  17  72 S18       29.81F WCI  11
GRAND FORKS AF PTCLDY    25  17  72 S17G23    29.79F WCI  12
GRAND CITY NWS   N/A     23 N/A N/A S24         N/A  WCI   7
BUXTON         NOT AVBL
DEVILS LAKE    PTCLDY    27  19  74 S15       29.73S WCI  15
FARGO          CLOUDY    28  17  63 S23G33    29.87F WCI  14
WAHPETON ARPT  CLOUDY    27  18  69 S23G30    29.91F WCI  12
$$

 *****  WEATHER ACROSS CENTRAL AND WESTERN NORTH DAKOTA  *****

CITY           SKY/WX    TMP DP  RH WIND       PRES   REMARKS
JAMESTOWN      PTCLDY    25  18  74 S14       29.75F WCI  13
BISMARCK       CLOUDY    30  24  78 CALM      29.72F
MINOT          FLURRIES  21  14  74 W30G39    29.77R WCI   3
MINOT AFB      MOCLDY    19  16  86 NW18G29   29.78R WCI   4
GARRISON         N/A     25  19  78 NW23      29.76R WCI  10
WILLISTON      CLOUDY    19  12  74 N15       29.90R WCI   5
DICKINSON      CLOUDY    27  19  72 N20G28    29.74R WCI  13
HETTINGER      CLOUDY    27  15  61 NW3       29.71F
$$

 *****  OTHER OBSERVATIONS NORTHEAST NORTH DAKOTA  *****

CITY           SKY/WX    TMP DP  RH WIND       PRES   REMARKS
WALHALLA         N/A     25  19  80 S15G24    29.74F WCI  12
LANGDON        NOT AVBL
CAVALIER       FAIR      23  18  80 S13       29.76F WCI  11
GRAFTON        NOT AVBL
CANDO          FAIR      21  18  86 SW9       29.71F WCI  11
FORT TOTTEN    NOT AVBL
ROLLA          FAIR      21  19  93 SW8       29.70R WCI  12
RUGBY          FAIR      18  16  93 W10       29.72S WCI   6
 ***** THE ABOVE OBSERVATIONS ARE NON NWS ARE NOT QUALITY
        CONTROLLED AND MAY MIS-REPORT RAIN FOR SNOW...
$$

 *****  OTHER OBSERVATIONS SOUTHEAST NORTH DAKOTA *****

CITY           SKY/WX    TMP DP  RH WIND       PRES   REMARKS
COOPERSTOWN    NOT AVBL
VALLEY CITY    FLURRIES  27  21  80 S21G26    29.77F WCI  13
OAKES            N/A     27  21  80 S20       29.80F WCI  13
GWINNER        CLEAR     30  21  69 S17       29.84F WCI  18
BUFFALO        NOT AVBL
WYNDMERE         N/A     27  19  74 S15         N/A  WCI  15
 ***** THE ABOVE OBSERVATIONS ARE NON NWS ARE NOT QUALITY
       CONTROLLED AND MAY MIS-REPORT RAIN FOR SNOW...
$$

  *****  WEATHER ACROSS NORTHERN MINNESOTA  *****

CITY           SKY/WX    TMP DP  RH WIND       PRES   REMARKS
FLAG ISLAND    CLOUDY    19  10  68 SE15      29.82F WCI   5
WARROAD        CLOUDY    25  12  58 S13G20    29.82F WCI  13
ROSEAU         CLOUDY    27  18  69 S21       29.82F WCI  13
HALLOCK        NOT AVBL
THF RVR FALLS  MOCLDY    25  16  68 S17       29.83F WCI  11
HALSTAD        NOT AVBL
FOSSTON        CLOUDY    23  16  74 S24G30    29.85F WCI   7
BAUDETTE       CLOUDY    23   8  52 S13       29.85F WCI  11
WASKISH        CLOUDY    25  10  54 S8G20     29.89F WCI  16
CROOKSTON      PTCLDY    25  18  74 S25       29.85F WCI   9
$$
  *****  WEATHER ACROSS CENTRAL AND WEST MINNESOTA  *****

CITY           SKY/WX    TMP DP  RH WIND       PRES   REMARKS
BEMIDJI        CLOUDY    23  12  61 S16G23    29.90F WCI  10
PARK RAPIDS    CLOUDY    24  13  62 S17       29.93F WCI  11
WADENA         CLOUDY    21  14  73 S15G23    29.95F WCI   8
DETROIT LAKES  MOCLDY    27  18  69 S21       29.91F WCI  13
MOORHEAD       CLOUDY    27  19  74 S24G31    29.89F WCI  12
FERGUS FALLS   CLOUDY    25  16  68 S17G28    29.97F WCI  11
ELBOW LAKE     CLOUDY    23  18  81 SE21G29   29.93F WCI   8
MORRIS MN      CLOUDY    25  19  80 SE22      29.96F WCI  10
STAPLES        CLOUDY    21  10  63 SE13G20   29.98F WCI   9
WHEATON        CLOUDY    25  18  74 SE23      29.94F WCI  10
$$
  *****  WEATHER ELSEWHERE ACROSS MINNESOTA  *****

CITY           SKY/WX    TMP DP  RH WIND       PRES   REMARKS
DULUTH         CLOUDY    21   5  50 S14       30.04F WCI   8
INTRNTL FALLS  CLOUDY    23   5  46 S10G20    29.91F WCI  12
ELY            CLEAR     18   1  49 S7        30.01F WCI   8
CLOQUET        CLOUDY    21   5  49 S9        30.05F WCI  11
BRAINERD       CLOUDY    22  11  62 S13       30.02F WCI  10
HIBBING        CLOUDY    21   4  47 S12G21    30.00F WCI   9
ALEXANDRIA     CLOUDY    22  15  75 S20       29.98F WCI   7
SAINT CLOUD    CLOUDY    22  11  62 S15       30.08F WCI   9
MINNEAPOLIS    CLOUDY    21  10  62 SE10      30.14F WCI  10
$$

  *****  WEATHER ACROSS SOUTH DAKOTA  *****

CITY           SKY/WX    TMP DP  RH WIND       PRES   REMARKS
SIOUX FALLS    CLOUDY    29  20  69 SE18      29.94F WCI  16
BROOKINGS      NOT AVBL
WATERTOWN      CLOUDY    27  20  75 S21G30    29.88F WCI  13
HURON          MOCLDY    31  21  66 S17G25    29.85F WCI  19
SISSETON         N/A     27  20  75 S21       29.88F WCI  13
ABERDEEN       PTCLDY    28  19  69 S22       29.82F WCI  14
MITCHELL       CLOUDY    33  21  61 SE16      29.88F WCI  23
PIERRE         CLOUDY    37  15  40 SE14      29.73F
MOBRIDGE       CLOUDY    36  20  52 S7        29.69F
RAPID CITY     CLOUDY    39  21  48 N12       29.67R
$$

  *****  SOME WEATHER IN NEARBY STATES *****

CITY           SKY/WX    TMP DP  RH WIND       PRES   REMARKS
GLASGOW MT     CLOUDY    18   7  62 N29G35    30.00R WCI  -1
GREAT FALLS MT LGT SNOW  17  14  88 NE9       30.06R FOG     WCI   6
CHEYENNE WY    CLOUDY    29  23  78 W9        29.56R HAZE    WCI  20
SCOTTSBLUFF NE PTCLDY    29  23  78 E13       29.60F WCI  19
OMAHA NE       CLOUDY    33  19  56 SE18G25   30.03F WCI  22
DES MOINES IA  CLOUDY    30  17  58 SE10G21   30.14F WCI  21
DAVENPORT IA   CLOUDY    26  16  65 SE8       30.26F WCI  18
CHICAGO IL     CLOUDY    26  15  63 S9        30.31F WCI  17
EAU CLAIRE WI  CLOUDY    24   6  46 S9        30.17F WCI  14
LA CROSSE WI   CLOUDY    26  13  57 S10       30.21F WCI  16
$$

  *****  SOME NATIONAL WEATHER *****

CITY           SKY/WX    TMP DP  RH WIND       PRES   REMARKS
LA GUARDIA NY  CLEAR     30  11  45 NW21G32   30.33R WCI  17
RALEIGH NC     PTCLDY    41  24  51 NE5       30.34R
ATLANTA GA     MOCLDY    54  46  74 N8        30.27S
NEW ORLEANS LA CLOUDY    69  66  90 S5        30.20R
OKLAHOMA CITY  DRZL/FOG  36  33  89 S12       30.10F VSB 1
ALBUQUERQUE NM CLOUDY    52  41  66 S20       29.89R
SALT LAKE CITY LGT SNOW  33  32  96 NW8       29.72R FOG
LOS ANGELES CA MOCLDY    55  45  68 CALM      29.94R
BOISE ID       CLOUDY    43  20  39 NW7       29.75R
SEATTLE WA     PTCLDY    46  29  51 N8        30.07R
$$

*** WEATHER ACROSS MANITOBA...SASKATCHEWAN AND ONTARIO ***
                ***ONTARIO***

CITY           SKY/WX    TMP DP  RH WIND       PRES   REMARKS
GERALDTON      PTCLDY     9   0  66 S9        30.05F WCI  -5
THUNDER BAY    PTCLDY    10   7  85 VRB2      30.10F
SIOUX LOOKOUT  MOCLDY    14   0  52 SE7       29.86F WCI   4
TORONTO        CLEAR     14   7  73 W5        30.40F WCI   6
BIG TROUT LK   CLEAR      5  -4  66 S8        29.77F WCI  -8
PICKLE LAKE    NOT AVBL
DRYDEN         CLOUDY    18   5  57 S13       29.85F WCI   4
KENORA         CLOUDY    21   9  58 S13G20    29.81F WCI   9
$$
                *** MANITOBA***

CITY           SKY/WX    TMP DP  RH WIND       PRES   REMARKS
BRANDON        CLOUDY    21  16  79 W16       29.69R WCI   7
DAUPHIN        FLURRIES  21  16  79 W16G22    29.69R WCI   7
ISLAND LAKE    FLURRIES  23   9  54 SW14G24   29.65F WCI  11
PILOT MOUND      N/A     19  18  93 S17         N/A  WCI   4
THE PAS        LGT SNOW  10   5  79 NW21G32   29.78R DRFTSNOWWCI  -9
THOMPSON       LGT SNOW  10   5  79 NW16G25   29.64R WCI  -7
WINNIPEG       MOCLDY    23  16  74 S20G28    29.73F WCI   8
LYNN LAKE      LGT SNOW  -4  -9  77 N20G26    29.81R WCI -27
CHURCHILL      FLURRIES  -6 -11  77 E18       29.80F WCI -29
GILLAM         LGT SNOW  18  16  93 N2        29.59F
$$
                ***SASKATCHEWAN***

CITY           SKY/WX    TMP DP  RH WIND       PRES   REMARKS
ESTEVAN        MOCLDY    14  10  85 NW30G37   29.84R WCI  -7
KINDERSLEY     PTCLDY     5  -2  72 NW13      30.11S WCI -12
LLOYDMINSTER   PTCLDY     3  -6  66 NW10      30.13R WCI -12
PRINCE ALBERT  MOCLDY     3  -9  55 N16       30.02R WCI -16
REGINA         LGT SNOW  10   7  85 NW26G33   29.95R BLWGSNOWWCI -11
YORKTON        FLURRIES  12   9  85 NW18G26   29.81R WCI  -5


USA.gov is the U.S. government's official web portal to all federal, state and local government web resources and services.